Theta_e
342 335 335 337 336 335 335 335 341 341 344 332 329 332 334 333 338 340 344 343 341 340
337 336 335 338 337 334 336 337 341 340 339 330 325 322 320 327 324 323 332 340 343 343
327 328 335 336 336 337 339 338 337 341 342 328 325 324 327 326 327 323 322 337 340 341
324 325 327 330 333 336 337 339 339 342 341 334 331 330 330 326 326 324 316 328 336 339
325 323 324 325 329 333 333 335 337 339 337 333 331 329 333 321 317 320 316 324 332 335
323 323 322 323 325 329 328 326 330 334 333 333 328 328 327 328 324 326 327 329 333 333
316 320 321 321 321 325 326 325 323 321 320 326 328 327 326 324 323 325 326 329 330 331
315 316 317 318 320 321 323 322 322 319 317 318 323 324 325 326 327 328 327 329 330 330
313 313 313 314 315 318 322 322 321 318 317 313 317 311 312 324 328 328 327 326 327 329
310 309 310 312 313 313 317 322 319 317 317 313 313 311 309 309 330 329 329 328 329 323
307 307 307 307 310 313 315 319 319 316 314 314 317 309 306 308 322 327 330 330 330 326
305 304 305 305 308 308 311 314 319 318 315 314 316 308 303 306 320 317 318 329 330 329
303 304 303 305 306 307 308 311 315 315 319 317 319 309 304 305 322 320 321 323 324 312
303 303 304 304 307 307 306 307 310 312 313 318 319 319 302 300 321 322 322 319 319 326
Wind_Speed
5 6 7 7 8 10 10 10 12 10 8 14 11 15 20 13 14 11 11 11 6 4
6 7 8 9 10 10 11 11 14 15 4 11 16 21 30 11 0 8 24 9 6 4
10 11 8 7 9 12 12 12 16 16 6 10 9 14 18 8 6 9 22 17 10 6
8 11 13 10 8 10 11 12 14 15 11 10 13 11 9 10 9 8 2 24 8 9
5 8 10 11 13 10 11 11 12 13 8 11 8 8 11 11 9 7 10 31 23 10
6 7 9 10 10 11 11 10 11 10 10 11 11 9 11 12 13 17 27 16 11 9
10 9 9 10 13 10 10 10 6 7 12 16 13 15 15 16 17 14 10 8 7 6
11 11 11 11 13 12 9 12 12 5 11 15 20 10 13 11 9 7 7 7 7 6
13 13 12 14 13 14 11 11 11 11 4 7 15 21 13 8 8 9 8 6 7 5
14 15 16 14 14 14 13 10 9 7 7 5 14 25 3 1 2 6 6 5 6 6
15 16 18 19 18 15 11 10 9 10 8 7 15 26 9 11 2 5 4 6 6 7
16 18 16 19 19 17 16 12 9 10 11 15 16 17 10 5 4 3 14 7 9 9
15 16 17 18 17 13 14 14 11 10 13 17 16 14 14 11 7 12 13 11 4 13
15 16 18 16 13 13 12 14 12 12 12 13 14 14 16 15 9 8 8 8 7 8
Wind_Direction
299 289 284 277 263 273 278 278 285 279 218 162 141 313 309 308 280 318 240 193 187 205
276 252 265 269 275 282 286 287 270 270 212 198 181 188 208 246 47 346 270 233 189 208
322 310 276 270 278 276 274 271 276 284 234 183 192 205 205 192 202 208 264 251 195 215
319 317 316 301 268 282 290 281 277 277 259 206 191 181 161 163 173 122 223 306 263 212
270 303 308 311 316 299 276 278 273 280 286 229 197 184 158 150 139 180 162 234 230 206
295 299 294 304 305 311 324 341 326 287 249 226 207 179 181 176 180 197 213 208 198 193
298 291 291 290 291 275 294 300 303 327 338 305 205 198 194 194 206 199 194 190 188 183
292 283 284 274 281 289 275 278 278 344 341 333 286 205 196 185 176 181 182 176 167 170
281 274 273 281 274 276 265 276 278 269 164 305 325 304 171 157 160 168 173 166 167 144
300 301 303 279 276 270 272 259 252 241 251 250 282 302 254 322 201 158 157 173 150 160
288 286 290 288 289 282 269 249 247 257 234 198 238 246 229 231 189 359 168 180 175 174
284 279 277 283 282 273 275 265 224 239 234 236 249 251 242 187 138 104 281 206 202 190
267 269 271 269 268 289 302 254 251 235 232 246 255 246 229 179 183 203 220 226 130 250
265 267 266 259 268 271 270 294 276 258 247 251 236 243 215 197 203 213 210 229 210 201